Temperature
21 21 20 20 20 20 23 24 26 26 25 26 26 25 24 23 22 21 21 21 21 21 21 21 20 20 20 20 20 20 20 20 20 20 20 20 20 19 19 19 19 19 19 19 19 19 19 19 19
21 21 20 20 20 21 23 25 26 26 26 26 25 24 23 22 22 21 20 21 21 21 21 21 21 20 20 20 20 20 20 20 20 20 20 19 19 19 19 19 19 19 19 19 19 19 19 19 19
21 21 20 20 21 22 24 26 26 26 26 26 25 25 24 22 21 21 21 21 22 21 21 21 21 21 20 20 20 20 20 20 19 19 19 19 19 19 19 19 19 19 19 19 19 19 19 19 19
21 20 21 21 22 24 25 26 26 26 26 26 25 24 23 23 22 22 22 22 22 22 21 21 21 21 21 20 20 20 20 20 20 19 19 19 19 19 19 19 19 19 19 19 19 19 19 19 19
21 21 21 22 23 25 26 27 27 26 26 25 24 23 23 23 23 22 22 22 22 22 21 21 21 21 21 20 20 20 20 20 20 19 19 19 19 19 19 19 19 19 19 19 19 19 19 19 19
21 21 21 23 25 26 27 27 27 26 25 25 24 23 22 23 22 22 22 22 22 22 21 21 21 21 21 20 20 20 20 20 20 20 19 19 19 19 19 19 19 19 19 19 19 19 19 19 19
22 21 22 24 25 26 27 27 27 26 25 25 24 23 22 22 22 22 22 22 22 22 21 21 21 21 21 20 20 20 20 20 20 20 19 19 19 19 19 19 19 19 19 19 19 19 19 19 19
23 22 23 24 26 27 28 28 27 27 26 25 25 23 22 22 22 22 22 22 22 22 21 21 21 21 21 20 20 20 20 20 20 19 19 19 19 19 19 19 19 19 19 19 19 19 19 19 19
25 22 23 25 26 27 28 28 27 27 26 26 25 24 23 23 22 22 22 21 21 21 21 21 21 21 21 20 20 20 20 20 19 19 19 19 19 19 19 19 19 19 19 19 19 19 19 19 19
24 22 24 27 27 27 28 28 28 27 26 25 24 24 23 23 22 22 22 21 21 21 21 21 21 21 21 20 20 20 20 20 19 19 19 19 19 19 19 19 19 19 19 19 19 19 19 19 19
24 24 26 28 28 28 28 28 28 26 24 24 24 24 23 23 23 23 22 22 22 22 21 21 21 21 21 20 20 20 20 20 20 19 19 19 19 19 19 19 19 19 19 19 19 19 18 18 19
26 26 28 28 29 28 28 28 27 26 26 25 25 24 24 23 23 23 23 22 22 22 21 21 21 21 21 21 20 20 20 20 20 20 19 19 19 19 19 19 19 19 19 19 19 19 19 19 19
27 27 28 29 29 29 28 28 27 26 26 25 25 24 24 24 23 23 23 22 22 22 21 21 21 21 21 21 20 20 20 20 20 20 19 19 19 19 19 19 19 19 19 19 19 19 19 19 19
27 28 28 29 29 29 28 27 27 26 26 25 25 24 24 24 24 23 23 22 22 22 22 21 21 21 21 20 20 20 20 20 20 20 19 19 19 19 19 19 19 19 19 19 19 19 19 19 18
28 27 27 28 28 28 28 26 26 27 26 25 25 25 24 24 24 24 23 23 22 22 22 22 21 21 21 21 20 20 20 20 20 20 19 19 19 19 19 19 19 19 19 19 19 19 19 18 18
27 26 26 27 28 28 27 25 26 27 26 26 25 25 24 24 24 24 23 23 23 22 22 22 21 21 21 21 20 20 20 20 20 19 19 19 19 19 19 19 19 19 19 19 19 19 19 19 18
26 25 26 27 28 28 27 25 26 27 26 25 25 25 24 24 24 24 24 23 23 23 22 22 22 21 21 21 20 20 20 20 20 19 19 19 19 19 19 19 19 19 19 19 19 19 19 19 18
26 26 27 27 28 28 26 26 26 27 26 25 25 25 24 24 24 24 24 24 23 23 22 22 22 21 21 21 20 20 20 20 20 19 19 19 19 19 19 19 19 19 18 18 18 18 18 18 18
27 27 27 27 28 27 26 25 25 26 26 25 25 24 24 24 24 24 24 24 24 23 22 22 22 21 21 21 20 20 20 20 20 19 19 19 19 19 19 19 19 18 18 18 18 18 18 18 18
27 26 26 27 28 27 25 25 25 25 25 25 25 24 24 24 24 24 24 24 23 23 23 22 22 21 21 21 21 20 20 20 19 19 19 19 19 19 19 19 19 18 18 18 18 18 18 18 18
27 26 27 27 27 26 26 24 24 25 25 25 25 25 25 24 24 24 24 24 23 23 23 22 22 22 21 21 21 20 20 20 19 19 19 19 19 19 19 19 18 18 18 18 18 18 18 18 18
26 28 28 27 25 24 25 23 23 23 24 24 24 25 25 24 24 24 24 23 23 23 23 22 22 22 21 21 21 20 20 20 20 19 19 19 18 18 18 18 18 18 18 18 18 18 18 18 18
28 28 27 27 25 24 24 22 22 22 23 23 24 24 25 25 24 24 24 23 23 23 23 22 22 22 21 21 21 20 20 20 19 19 19 19 18 18 18 18 18 18 18 18 18 18 18 17 17
28 27 25 23 22 22 23 23 22 22 23 24 24 24 25 25 24 24 24 23 23 23 22 22 22 22 21 21 21 20 20 20 19 19 19 19 18 18 18 18 18 18 18 18 18 17 17 17 17
27 24 23 23 22 22 22 22 22 23 23 24 24 24 24 24 24 24 23 23 23 23 22 22 22 21 21 21 20 20 20 19 19 19 19 19 18 18 18 18 18 18 18 17 17 17 17 17 17
26 24 23 23 22 22 22 22 22 24 24 24 25 24 24 24 24 24 23 23 23 23 23 22 22 21 21 21 20 20 20 19 19 19 19 18 18 18 18 18 18 18 17 17 17 17 17 17 17
27 25 23 22 22 21 21 22 22 23 23 23 24 24 24 24 24 24 23 23 23 23 23 22 22 21 21 21 20 20 20 19 19 19 18 18 18 18 18 18 18 17 17 17 17 17 17 17 16
27 25 22 22 22 22 22 22 21 22 22 22 22 23 23 24 24 24 23 23 23 23 22 22 22 22 21 21 20 20 19 19 19 18 18 18 18 18 18 17 17 17 17 17 17 17 16 16 16
26 25 23 21 21 21 21 21 23 22 22 22 22 23 24 24 24 23 23 23 22 22 22 22 21 21 21 20 20 19 19 19 18 18 18 18 18 18 17 17 17 17 16 16 16 16 16 16 16
26 25 22 22 22 20 20 21 23 22 22 22 22 23 24 24 24 24 23 23 22 22 22 22 21 21 20 20 20 19 19 19 18 18 18 17 17 17 17 17 17 16 16 16 16 16 16 16 15
Wind_Speed
11 8 3 1 1 2 1 2 4 5 5 7 10 11 9 6 4 5 4 11 12 10 10 12 13 13 13 12 12 12 12 12 12 12 13 13 13 13 13 12 12 12 13 13 12 12 11 12 12
8 6 2 0 2 3 1 2 6 7 9 11 11 11 9 7 7 9 6 11 13 11 11 12 14 13 13 13 12 11 11 11 11 11 12 12 11 11 12 12 11 12 12 12 11 11 10 10 11
6 4 1 1 1 3 2 4 8 9 9 9 7 7 5 6 8 7 9 14 12 10 10 13 15 14 13 12 12 11 11 10 10 11 11 10 10 10 11 11 10 10 11 11 10 10 9 9 9
2 1 1 1 1 2 3 5 9 10 8 8 9 7 5 6 6 10 16 15 13 9 10 13 15 14 13 12 11 11 11 10 10 10 10 9 9 10 10 10 9 9 9 9 9 8 8 8 9
1 1 2 1 1 1 3 6 8 9 6 9 11 9 5 5 14 17 15 14 13 9 9 12 14 14 13 12 11 10 10 10 10 9 9 8 8 9 9 9 8 8 8 8 8 7 7 7 8
1 1 2 0 1 1 3 7 10 12 12 11 10 8 4 7 15 14 14 11 11 10 8 10 13 13 13 12 11 10 9 9 9 9 9 8 7 8 8 8 7 7 7 7 7 7 7 7 7
2 1 1 1 1 3 4 6 9 11 11 7 9 7 5 7 11 13 12 11 10 9 7 7 9 11 12 12 11 10 9 9 9 9 8 7 7 7 7 6 6 6 6 5 6 7 7 7 7
3 2 1 1 3 3 4 5 9 11 9 10 8 8 7 9 11 12 11 9 9 7 6 6 6 7 8 9 10 9 8 8 8 8 7 7 7 6 6 6 6 6 6 5 5 6 6 6 6
2 2 1 3 3 3 5 8 7 8 10 6 5 8 11 14 13 12 11 8 7 7 5 5 5 6 7 8 8 8 7 7 6 6 6 5 4 4 5 6 6 6 6 5 5 7 6 6 5
4 3 4 4 4 5 7 9 7 7 9 8 11 12 14 14 13 12 12 10 8 8 6 5 6 6 6 6 6 6 5 5 4 4 4 4 4 4 4 5 6 7 6 6 6 6 6 5 4
4 4 4 3 3 5 6 6 5 10 8 11 17 16 14 14 12 11 11 10 9 9 8 7 6 6 5 3 5 4 4 4 3 4 4 3 3 2 2 2 3 3 5 4 3 3 3 3 3
2 5 4 2 2 5 5 5 6 8 9 14 17 17 15 14 12 11 11 9 8 8 8 7 7 6 6 5 4 4 3 3 3 4 5 3 1 1 1 1 1 2 2 2 2 2 2 3 4
3 4 4 3 3 4 6 7 7 8 12 15 15 15 14 13 12 10 10 9 8 8 8 8 7 6 5 4 4 4 3 3 4 4 4 4 2 2 1 1 1 1 2 2 2 2 2 2 3
3 3 3 2 3 4 7 6 6 8 12 14 14 12 11 13 12 10 9 9 9 9 8 8 7 6 6 5 4 3 3 3 4 3 3 4 3 2 2 1 1 1 1 2 2 2 2 2 2
1 1 2 1 2 3 7 4 5 10 12 13 13 12 11 11 12 12 12 10 10 10 9 8 8 7 6 5 5 4 3 4 3 3 3 3 3 3 2 1 1 0 1 1 2 2 1 1 1
1 1 1 3 3 4 7 4 6 9 11 11 11 12 11 9 11 11 12 10 9 9 9 8 8 7 6 5 4 3 4 4 3 3 3 3 3 4 3 1 1 1 1 2 2 2 2 1 1
2 2 3 3 3 4 5 5 7 8 11 11 10 11 11 10 10 10 11 11 10 10 9 8 7 7 6 5 4 4 4 4 3 4 3 3 3 4 3 1 1 2 2 2 1 2 2 1 1
5 3 3 4 3 3 3 4 7 8 10 10 10 9 9 10 10 11 12 11 11 10 9 8 7 7 6 4 4 3 3 2 3 3 3 3 3 4 3 2 2 2 3 2 2 2 2 1 0
4 2 4 4 4 2 3 3 5 7 8 8 8 9 10 10 8 9 10 11 10 9 8 8 8 7 6 4 4 3 2 2 2 2 3 3 3 4 3 2 2 2 3 2 2 2 2 1 1
2 2 3 3 1 3 4 2 2 4 8 11 12 11 11 8 7 9 9 10 10 10 9 8 8 8 7 5 4 3 3 2 2 1 2 3 3 3 4 3 2 2 2 2 2 2 2 1 2
4 5 4 2 2 3 3 2 2 3 3 6 8 9 9 10 10 9 10 10 10 10 10 9 9 8 7 6 4 4 3 2 1 1 1 1 2 3 3 3 3 2 2 1 1 1 2 1 1
5 5 3 1 2 1 1 1 5 3 3 4 6 7 8 9 9 9 9 10 11 10 9 8 9 8 7 7 6 6 5 3 3 3 3 2 2 3 3 3 3 2 2 1 1 1 1 2 1
6 4 3 2 2 1 2 2 5 2 4 6 7 9 10 10 11 10 10 11 10 9 8 8 8 8 7 8 8 7 5 3 2 3 3 2 2 2 3 3 3 2 2 1 1 2 2 2 1
3 3 3 3 4 0 4 2 5 4 7 6 6 8 9 9 9 9 9 8 8 7 7 7 7 7 7 8 7 8 7 6 5 4 3 2 1 1 1 2 2 2 2 1 1 1 2 2 2
2 5 3 4 3 4 3 2 6 6 6 7 7 7 6 7 8 8 8 8 8 8 8 8 8 7 7 8 7 7 7 7 7 6 5 3 2 1 1 2 2 2 2 2 1 2 1 1 1
4 9 7 5 5 4 2 3 5 4 4 4 6 7 7 8 8 9 9 10 9 10 9 9 8 7 7 8 7 6 7 6 5 5 5 4 3 3 2 2 2 2 2 2 1 1 1 1 1
3 3 8 7 3 2 3 3 4 2 1 4 5 6 8 8 7 7 8 7 7 8 8 9 9 8 8 8 7 6 6 6 6 5 5 4 3 3 3 2 2 1 2 1 2 1 0 0 0
6 6 5 5 4 2 3 4 5 5 4 4 5 6 7 7 7 6 7 7 7 7 7 7 8 9 8 8 7 7 6 6 6 6 5 5 4 3 3 3 2 2 1 1 1 1 0 0 1
0 2 4 4 5 6 3 6 5 8 7 6 6 7 6 7 8 9 8 7 7 6 7 7 7 7 7 7 7 6 5 5 5 5 5 5 4 4 4 4 3 2 2 1 1 1 1 0 1
5 6 7 5 3 5 5 6 4 7 6 6 5 4 5 7 7 7 8 7 6 6 6 7 7 7 7 7 7 6 6 5 5 4 4 4 4 4 4 4 4 3 2 2 2 2 1 1 1
Wind_Direction
169 168 165 185 45 44 69 104 110 82 67 72 90 94 92 79 114 138 150 141 138 141 146 140 133 131 127 121 116 112 110 111 113 115 116 116 118 123 126 127 130 130 132 135 136 136 137 138 140
160 166 178 44 66 73 50 114 99 96 118 106 87 88 83 73 92 117 126 143 141 142 145 143 137 135 132 127 122 118 116 115 116 118 119 120 121 123 128 129 130 134 134 135 138 141 142 141 144
167 188 187 48 99 146 145 121 112 109 114 104 93 73 79 107 118 132 146 145 138 141 147 147 141 138 135 132 128 125 122 119 121 123 123 125 128 128 130 134 135 138 140 141 144 147 147 147 149
162 159 29 58 230 202 151 136 123 110 89 85 97 79 69 108 124 137 141 142 137 141 147 148 143 142 140 135 132 130 126 123 124 126 126 126 131 134 134 136 140 143 146 148 151 155 157 159 159
113 87 36 342 240 219 157 146 133 112 104 98 99 100 84 86 120 133 140 141 140 143 147 148 145 142 141 138 135 133 127 126 127 128 128 128 134 141 144 146 150 152 153 158 161 166 166 170 171
105 97 49 283 161 147 133 124 108 104 109 106 103 105 95 119 129 139 139 140 142 145 146 149 146 143 141 141 139 137 133 131 134 134 133 133 134 143 151 155 155 160 164 161 167 170 173 177 179
151 110 219 245 115 112 125 123 115 120 123 123 124 105 112 129 140 140 138 134 138 142 142 142 152 152 149 147 146 142 140 139 140 140 140 140 138 140 150 156 155 156 157 162 173 180 184 185 185
181 118 286 251 133 110 126 117 120 122 120 129 124 124 150 158 144 130 128 129 132 137 141 142 146 153 155 154 150 148 146 144 145 147 146 147 148 151 159 168 169 168 170 177 184 189 194 197 199
154 82 241 203 154 147 130 110 111 109 116 127 117 130 147 143 135 125 121 121 131 138 146 146 146 146 155 155 154 152 150 155 153 159 154 157 171 180 181 183 185 187 189 196 198 198 203 209 208
141 155 222 217 174 160 143 130 132 110 104 99 104 117 133 134 136 135 138 140 142 152 160 163 159 158 158 159 150 152 152 158 163 172 177 174 185 199 194 199 198 201 201 204 208 208 211 213 207
169 195 237 245 188 150 138 136 124 121 123 139 139 142 144 140 142 145 147 152 155 159 162 168 166 162 162 154 151 160 163 166 172 179 183 174 183 199 191 192 209 212 209 209 211 218 225 209 199
181 242 239 242 175 137 136 125 118 132 152 152 148 149 150 150 154 158 154 155 150 144 153 157 160 159 160 152 156 158 162 172 178 180 172 158 139 152 167 155 173 202 210 189 185 198 215 209 214
208 244 257 221 172 140 123 129 130 135 141 144 144 148 154 155 157 161 156 154 146 145 150 151 151 153 148 139 149 148 163 173 177 167 167 158 136 155 152 160 154 198 194 175 174 177 189 193 202
224 233 269 241 152 139 125 132 119 153 145 144 149 153 156 157 156 151 154 157 154 154 155 152 146 145 137 139 141 142 156 157 152 149 160 155 153 143 127 126 120 161 205 185 166 164 172 187 185
197 301 321 262 165 149 112 89 148 166 152 152 156 157 156 160 159 157 163 162 161 158 155 154 150 145 140 141 144 137 141 139 134 143 154 144 146 142 124 101 80 113 182 149 131 121 117 151 150
16 25 254 262 193 168 122 174 187 168 155 158 161 161 159 167 169 165 162 158 158 153 153 157 153 149 146 142 139 130 136 136 138 144 144 137 131 133 116 89 47 39 77 78 103 106 114 116 118
352 230 234 263 215 168 146 181 188 175 156 158 164 166 165 174 177 170 164 161 161 157 156 157 150 153 152 143 136 134 133 132 139 140 140 138 128 128 118 91 47 66 68 49 81 87 102 97 82
254 243 243 232 228 155 161 182 183 179 162 162 167 167 166 173 184 175 167 163 161 159 158 156 152 156 150 139 124 116 115 127 132 141 148 148 138 125 116 96 65 83 76 50 49 70 58 88 107
223 234 244 237 226 146 165 163 183 170 162 169 172 173 177 182 182 173 167 161 159 157 157 159 156 162 154 149 147 137 140 148 147 156 153 145 140 129 111 93 68 78 91 87 71 75 57 30 59
210 252 270 272 241 143 128 158 217 187 184 182 179 178 181 179 174 171 168 166 166 165 164 165 166 166 164 167 161 151 144 146 151 156 137 143 133 132 123 114 107 97 88 66 56 68 68 16 50
254 205 222 219 11 57 89 352 300 256 199 183 184 180 179 180 180 176 172 171 171 172 174 175 173 168 167 156 137 127 103 89 99 122 146 147 142 128 114 117 112 113 107 97 56 71 101 82 6
261 225 185 155 81 307 121 234 283 251 236 208 200 189 188 184 179 176 175 173 176 182 180 174 171 167 166 156 153 154 155 165 184 168 157 151 150 141 132 122 118 119 113 106 65 87 99 102 34
225 199 152 175 147 77 347 140 275 277 238 240 223 197 192 185 177 174 178 179 180 181 177 175 167 167 165 161 162 161 161 165 150 135 139 150 155 143 141 127 115 115 117 107 74 64 75 95 105
165 65 38 40 75 44 255 173 260 246 220 223 220 196 188 175 174 176 179 168 173 177 173 170 164 171 170 166 166 164 164 159 148 149 157 164 152 138 143 125 123 124 127 130 121 93 83 79 77
86 91 28 355 359 254 255 186 240 241 219 206 196 179 174 167 169 178 177 171 174 176 179 178 173 175 174 168 171 168 165 161 164 167 168 164 160 165 182 153 144 149 147 139 121 92 80 78 73
212 146 160 199 224 264 301 229 248 243 224 201 175 165 161 173 179 181 183 180 179 179 177 178 173 173 174 169 168 163 158 160 164 164 163 168 175 180 174 154 153 161 154 147 130 112 122 90 79
188 200 170 149 173 188 257 268 297 327 99 144 146 151 158 177 171 177 178 173 175 176 177 173 166 168 173 167 156 152 159 158 159 161 158 168 175 173 165 155 140 132 144 149 139 137 223 84 109
167 165 99 118 161 223 268 251 229 237 201 165 162 164 172 168 159 166 171 173 180 174 168 167 166 172 169 165 167 166 166 165 163 161 166 173 178 175 168 164 157 149 137 147 151 151 193 132 286
152 115 120 134 157 162 224 262 220 209 197 187 193 179 173 167 168 171 173 180 178 166 160 160 162 160 162 167 166 165 166 168 164 169 176 179 179 175 174 175 171 169 181 181 165 179 152 145 304
173 180 147 151 220 165 167 256 259 204 193 180 181 170 168 164 167 165 163 166 168 166 166 165 163 163 168 165 161 169 162 159 162 177 182 175 178 181 179 176 176 185 191 199 196 209 196 191 245
Height
1511 1511 1512 1513 1514 1518 1515 1505 1497 1496 1496 1496 1496 1498 1501 1505 1510 1518 1515 1514 1516 1516 1517 1517 1518 1518 1517 1517 1517 1517 1517 1517 1517 1517 1518 1518 1519 1520 1521 1522 1523 1524 1525 1526 1527 1529 1530 1531 1533
1511 1512 1513 1513 1517 1526 1517 1502 1499 1496 1497 1497 1498 1500 1502 1507 1508 1511 1513 1515 1516 1517 1518 1518 1519 1519 1519 1519 1519 1518 1518 1518 1518 1519 1519 1520 1520 1521 1522 1523 1523 1525 1526 1527 1528 1529 1531 1532 1533
1512 1512 1514 1514 1518 1521 1514 1501 1498 1497 1497 1496 1500 1503 1505 1509 1510 1512 1513 1516 1517 1518 1519 1519 1520 1520 1520 1520 1520 1520 1520 1520 1520 1520 1520 1521 1521 1522 1523 1523 1524 1525 1526 1527 1529 1530 1531 1532 1534
1513 1514 1515 1517 1517 1508 1502 1499 1497 1498 1499 1499 1500 1505 1509 1511 1511 1513 1515 1516 1518 1519 1519 1520 1521 1521 1521 1521 1521 1521 1521 1521 1521 1521 1522 1522 1522 1523 1523 1524 1525 1526 1527 1528 1529 1530 1531 1532 1534
1513 1514 1517 1520 1512 1502 1497 1496 1496 1497 1500 1501 1501 1506 1511 1513 1513 1514 1516 1518 1519 1519 1520 1521 1522 1522 1522 1522 1522 1523 1522 1522 1522 1522 1523 1523 1523 1524 1524 1525 1526 1526 1527 1528 1529 1530 1531 1533 1534
1514 1514 1521 1522 1510 1500 1497 1496 1497 1499 1502 1504 1505 1508 1514 1515 1515 1516 1518 1519 1520 1520 1521 1522 1523 1523 1523 1524 1524 1524 1524 1524 1524 1524 1524 1524 1524 1525 1525 1526 1526 1527 1527 1528 1529 1530 1531 1532 1534
1513 1514 1519 1515 1509 1503 1499 1497 1497 1500 1503 1505 1506 1509 1515 1517 1517 1518 1519 1520 1521 1522 1522 1523 1523 1524 1524 1525 1525 1525 1525 1525 1525 1525 1525 1525 1526 1526 1526 1526 1526 1527 1527 1528 1529 1530 1531 1532 1533
1510 1513 1516 1512 1508 1504 1498 1497 1498 1500 1503 1506 1507 1509 1514 1517 1518 1519 1520 1522 1523 1523 1523 1524 1524 1525 1525 1526 1526 1526 1526 1526 1526 1526 1526 1526 1527 1527 1527 1527 1527 1527 1528 1528 1529 1529 1530 1532 1533
1510 1516 1519 1510 1506 1502 1497 1497 1500 1502 1503 1506 1507 1509 1512 1516 1518 1520 1521 1522 1523 1523 1524 1524 1525 1526 1526 1527 1527 1527 1527 1527 1527 1527 1527 1527 1527 1527 1527 1527 1527 1528 1528 1528 1529 1529 1530 1531 1532
1508 1516 1510 1500 1498 1498 1497 1497 1499 1503 1505 1507 1509 1512 1514 1516 1518 1520 1520 1521 1522 1523 1524 1525 1525 1526 1527 1527 1528 1528 1528 1528 1527 1528 1527 1527 1527 1527 1527 1527 1527 1528 1528 1528 1528 1529 1530 1531 1532
1506 1508 1501 1497 1496 1497 1496 1498 1499 1502 1507 1507 1508 1512 1515 1516 1518 1519 1520 1521 1521 1522 1524 1525 1526 1527 1527 1528 1528 1528 1528 1528 1528 1528 1527 1527 1527 1527 1527 1527 1527 1527 1528 1528 1528 1529 1529 1530 1531
1503 1500 1498 1496 1495 1496 1496 1498 1500 1501 1504 1506 1507 1509 1513 1515 1518 1519 1520 1521 1521 1522 1523 1525 1526 1527 1527 1528 1528 1529 1529 1529 1528 1528 1528 1527 1527 1527 1527 1527 1527 1527 1527 1528 1528 1528 1529 1529 1530
1500 1499 1496 1494 1494 1495 1496 1498 1500 1502 1504 1506 1509 1511 1513 1515 1517 1519 1520 1521 1522 1522 1523 1525 1526 1527 1528 1528 1528 1529 1529 1529 1529 1529 1528 1528 1528 1528 1528 1527 1528 1527 1527 1528 1528 1528 1528 1529 1529
1498 1497 1495 1494 1494 1496 1497 1499 1500 1504 1505 1507 1510 1512 1514 1515 1517 1519 1520 1521 1522 1522 1524 1525 1527 1527 1528 1528 1529 1529 1530 1530 1530 1529 1529 1529 1529 1528 1528 1527 1528 1528 1528 1528 1528 1528 1528 1528 1529
1497 1498 1496 1495 1495 1497 1498 1504 1502 1503 1505 1507 1510 1512 1514 1515 1516 1517 1519 1520 1521 1523 1524 1525 1526 1527 1528 1528 1529 1529 1530 1530 1530 1530 1530 1530 1529 1529 1529 1528 1528 1528 1528 1528 1528 1528 1528 1528 1528
1498 1503 1508 1498 1495 1496 1502 1513 1503 1502 1504 1506 1509 1511 1513 1515 1516 1517 1518 1520 1521 1522 1524 1525 1526 1527 1528 1528 1529 1529 1530 1530 1531 1530 1530 1530 1530 1530 1529 1529 1529 1529 1528 1528 1528 1527 1527 1527 1527
1506 1513 1510 1501 1493 1494 1500 1508 1502 1502 1503 1505 1508 1510 1512 1514 1516 1516 1518 1519 1521 1522 1523 1525 1526 1527 1528 1529 1529 1530 1530 1531 1531 1531 1531 1530 1530 1530 1530 1529 1529 1529 1528 1528 1527 1527 1527 1527 1527
1513 1510 1508 1505 1495 1495 1500 1502 1499 1501 1502 1504 1506 1508 1510 1512 1514 1515 1517 1518 1520 1521 1523 1524 1525 1526 1528 1529 1529 1530 1530 1531 1531 1531 1531 1531 1530 1530 1530 1530 1529 1529 1528 1528 1527 1527 1526 1527 1527
1499 1503 1506 1501 1493 1497 1501 1502 1500 1500 1502 1504 1505 1507 1508 1509 1512 1514 1516 1517 1519 1520 1522 1523 1524 1525 1526 1527 1528 1529 1529 1530 1530 1530 1531 1531 1530 1530 1530 1530 1529 1529 1529 1528 1527 1527 1526 1526 1527
1496 1504 1505 1499 1492 1497 1503 1504 1500 1499 1500 1501 1503 1504 1506 1508 1510 1512 1514 1516 1517 1519 1520 1522 1523 1524 1525 1526 1527 1528 1529 1529 1530 1530 1530 1530 1530 1530 1530 1529 1529 1529 1529 1528 1527 1527 1526 1526 1526
1498 1502 1501 1501 1497 1498 1503 1511 1506 1501 1500 1501 1502 1502 1503 1505 1507 1510 1511 1514 1515 1517 1518 1519 1521 1522 1524 1525 1527 1528 1529 1529 1529 1529 1529 1529 1529 1529 1529 1529 1529 1528 1528 1528 1527 1527 1526 1526 1526
1501 1490 1491 1496 1507 1517 1511 1530 1513 1505 1502 1501 1500 1501 1502 1504 1505 1507 1508 1510 1513 1515 1516 1518 1519 1521 1522 1524 1525 1526 1526 1527 1528 1528 1528 1529 1529 1529 1529 1529 1528 1528 1528 1527 1527 1527 1526 1526 1526
1489 1485 1489 1495 1505 1516 1514 1526 1520 1507 1506 1501 1498 1498 1500 1501 1502 1504 1506 1508 1510 1512 1514 1515 1517 1519 1520 1522 1523 1524 1525 1526 1527 1527 1528 1528 1528 1528 1528 1528 1528 1528 1527 1527 1527 1526 1526 1525 1525
1481 1488 1494 1502 1512 1530 1520 1525 1524 1510 1503 1497 1495 1496 1497 1499 1501 1504 1505 1506 1508 1510 1512 1514 1516 1517 1519 1520 1521 1522 1523 1524 1525 1526 1526 1526 1527 1527 1527 1527 1527 1527 1527 1527 1526 1526 1525 1525 1525
1483 1504 1526 1530 1537 1534 1517 1521 1519 1499 1494 1493 1493 1495 1496 1497 1500 1502 1504 1504 1506 1508 1510 1511 1513 1514 1516 1519 1520 1521 1522 1523 1523 1524 1524 1525 1525 1525 1526 1526 1526 1526 1526 1526 1526 1525 1525 1524 1524
1485 1498 1525 1538 1541 1533 1520 1521 1509 1493 1491 1490 1490 1493 1495 1496 1498 1500 1501 1502 1504 1505 1507 1509 1510 1512 1514 1516 1518 1519 1520 1521 1522 1523 1523 1523 1523 1524 1524 1524 1525 1525 1525 1525 1525 1524 1524 1523 1523
1484 1493 1495 1516 1524 1533 1527 1516 1503 1492 1491 1490 1490 1491 1493 1495 1496 1498 1499 1501 1502 1504 1505 1507 1509 1510 1512 1514 1516 1517 1518 1519 1520 1521 1521 1521 1522 1522 1523 1523 1523 1523 1523 1523 1523 1523 1523 1522 1522
1473 1481 1500 1515 1531 1539 1529 1521 1515 1500 1495 1491 1489 1490 1491 1492 1494 1496 1497 1499 1501 1502 1504 1505 1507 1508 1509 1511 1513 1514 1516 1517 1518 1519 1519 1520 1520 1520 1520 1521 1521 1521 1521 1521 1521 1521 1521 1521 1520
1478 1484 1494 1508 1515 1532 1538 1524 1494 1494 1490 1490 1488 1488 1489 1490 1492 1493 1495 1497 1499 1501 1502 1503 1505 1506 1507 1509 1511 1512 1513 1515 1515 1516 1517 1517 1518 1518 1518 1518 1519 1519 1519 1520 1519 1519 1518 1518 1518
1471 1479 1490 1508 1514 1518 1525 1518 1484 1485 1486 1486 1487 1488 1489 1490 1492 1493 1493 1496 1498 1500 1501 1502 1504 1505 1506 1507 1509 1510 1511 1512 1513 1514 1514 1515 1516 1516 1516 1516 1516 1517 1517 1517 1517 1517 1516 1516 1515